New York, NY

5:14 PM EST on December 08, 2019 (GMT -0500)
La Guardia

Weather History for KLGA - October, 2019

Change the Weather History Date:

Tuesday, October 8, 2019

  Actual Average Record
Temperature  
Mean Temperature 63 °F 61 °F  
Max Temperature 66 °F 68 °F 89 °F (2007)
Min Temperature 59 °F 54 °F 40 °F (1964)
Degree Days  
Heating Degree Days 2 5  
Month to date heating degree days 26 36  
Since 1 July heating degree days 29 71  
Cooling Degree Days 0 1  
Month to date cooling degree days 27 13  
Year to date cooling degree days 1482 1203  
Growing Degree Days 12 (Base 50)    
Moisture  
Dew Point 50 °F    
Average Humidity 69    
Maximum Humidity 90    
Minimum Humidity 48    
Precipitation  
Precipitation 0.03 in 0.13 in 3.51 in (2005)
Month to date precipitation 0.51 0.99  
Year to date precipitation 36.99 34.97  
Snow  
Snow 0.00 in 0.00 in - ()
Month to date snowfall 0.0 0.0  
Since 1 July snowfall 0.0 0.0  
Snow Depth 0.00 in    
Sea Level Pressure  
Sea Level Pressure 30.21 in    
Wind  
Wind Speed 13 mph (NNE)    
Max Wind Speed 20 mph    
Max Gust Speed 31 mph    
Visibility 10 miles    
Events Rain    
T = Trace of Precipitation, MM = Missing Value Source: NWS Daily Summary

Daily Weather History Graph

Daily Weather History Graph

Search for Another Location

Airport or City:

Astronomy

Oct. 08, 2019 Rise Set
Actual Time 6:58 AM EDT 6:26 PM EDT
Civil Twilight 6:31 AM EDT 6:53 PM EDT
Nautical Twilight 5:59 AM EDT 7:25 PM EDT
Astronomical Twilight 5:27 AM EDT 7:57 PM EDT
Moon 4:26 PM EDT 1:43 AM EDT
Length of Visible Light 12h 22m
Length of Day
11h 27m
Waxing Gibbous, 77% of the Moon is Illuminated
Oct 8
Waxing Gibbous
Oct 13
Full
Oct 21
Last Quarter
Oct 27
New
Nov 4
First Quarter

Hourly Weather History & Observations

Time (EDT) Temp. Dew Point Humidity Pressure Visibility Wind Dir Wind Speed Gust Speed Precip Events Conditions
12:37 AM 60.1 °F 55.9 °F 86% 30.19 in 8.0 mi NNE 10.4 mph - 0.02 in Rain Light Rain
12:51 AM 60.1 °F 57.0 °F 90% 30.19 in 10.0 mi North 11.5 mph - 0.02 in Rain Light Rain
1:51 AM 61.0 °F 55.9 °F 83% 30.19 in 10.0 mi NNE 9.2 mph - 0.00 in   Overcast
2:51 AM 60.1 °F 55.9 °F 86% 30.19 in 10.0 mi NNE 9.2 mph - 0.02 in Rain Light Rain
3:47 AM 60.8 °F 53.6 °F 77% 30.18 in 10.0 mi NNE 10.4 mph - 0.01 in   Overcast
3:51 AM 60.1 °F 53.1 °F 78% 30.18 in 10.0 mi NNE 10.4 mph - 0.01 in   Overcast
4:44 AM 59.0 °F 53.1 °F 81% 30.20 in 10.0 mi North 9.2 mph - N/A   Overcast
4:51 AM 59.0 °F 53.1 °F 81% 30.20 in 10.0 mi North 8.1 mph - N/A   Overcast
5:51 AM 59.0 °F 51.1 °F 75% 30.22 in 10.0 mi North 10.4 mph - N/A   Overcast
6:51 AM 59.0 °F 51.1 °F 75% 30.22 in 10.0 mi NNE 6.9 mph - 0.00 in Rain Light Rain
7:51 AM 60.1 °F 51.1 °F 72% 30.25 in 10.0 mi NNE 8.1 mph - 0.00 in Rain Light Rain
8:51 AM 60.1 °F 51.1 °F 72% 30.25 in 10.0 mi NE 12.7 mph - 0.00 in Rain Light Rain
9:51 AM 62.1 °F 51.1 °F 67% 30.26 in 10.0 mi NNE 10.4 mph - 0.00 in   Overcast
10:51 AM 63.0 °F 48.9 °F 60% 30.25 in 10.0 mi NE 10.4 mph - N/A   Overcast
11:51 AM 63.0 °F 46.9 °F 56% 30.25 in 10.0 mi NNE 12.7 mph - N/A   Overcast
12:51 PM 63.0 °F 46.9 °F 56% 30.23 in 10.0 mi NNE 13.8 mph - N/A   Overcast
1:51 PM 63.0 °F 46.9 °F 56% 30.21 in 10.0 mi NNE 11.5 mph - N/A   Overcast
2:51 PM 64.0 °F 46.0 °F 52% 30.21 in 10.0 mi NNE 11.5 mph - N/A   Overcast
3:51 PM 64.0 °F 46.0 °F 52% 30.20 in 10.0 mi NNE 13.8 mph - N/A   Mostly Cloudy
4:51 PM 64.0 °F 46.9 °F 54% 30.20 in 10.0 mi NE 13.8 mph - N/A   Mostly Cloudy
5:51 PM 64.9 °F 46.0 °F 50% 30.21 in 10.0 mi NE 12.7 mph - N/A   Mostly Cloudy
6:51 PM 64.9 °F 44.1 °F 47% 30.21 in 10.0 mi NE 15.0 mph - N/A   Mostly Cloudy
7:51 PM 63.0 °F 45.0 °F 52% 30.20 in 10.0 mi NE 16.1 mph - N/A   Mostly Cloudy
8:51 PM 62.1 °F 46.9 °F 58% 30.21 in 10.0 mi NE 19.6 mph 26.5 mph N/A   Mostly Cloudy
9:51 PM 61.0 °F 48.0 °F 62% 30.22 in 10.0 mi NNE 16.1 mph - N/A   Mostly Cloudy
10:51 PM 61.0 °F 48.9 °F 64% 30.22 in 10.0 mi NNE 16.1 mph - N/A   Mostly Cloudy
11:51 PM 61.0 °F 48.0 °F 62% 30.22 in 10.0 mi NNE 15.0 mph - N/A   Mostly Cloudy